HISPASAT 36W-1 (41942 NORAD) Tracking and Keplerian Element Data

This shows tracking and keplerian element data for the satellite.

Feedback or suggestion? Click here.




ElementValue
Catalog41942
NameHISPASAT 36W-1
Epoch Orbit2708
Epoch Day156.40951516
Epoch Year2024
RAAN271.5522
Inclination0.0041
Eccentricity9.24E-05
Argument of Perigee165.6378
Mean Anonmoly287.5722
Mean Motion1.00271862
Decay Rate-2.4E-06
L11 41942U 17006A 24156.40951516 -.00000240 00000+0 00000+0 0 9998
L22 41942 0.0041 271.5522 0000924 165.6378 287.5722 1.00271862 27089



Live tracking and technical data element details for HISPASAT 36W-1 (NORAD 41942). HISPASAT 36W-1 can be tracked NOW for your location showing map with azimuth and elevation plus other details from your city location.







IsCatalogInMostPopularTable: catalog: 41942, numindb: 623
Update: records affected: 1



GetName: 41942 HISPASAT 36W-1

Hit Count: updated at: Mon, 17 Jun 2024 23:18:03 GMT